Home > Weather > Morden > Past weeks

Flag for Canada Weather for the Past 2 Weeks in Morden, Manitoba, Canada

Now
-1 °F

Frigid.


Feels Like: -16 °F
Forecast: -12 / 0 °F
Wind: 9 mph from North

Location: Morden CDA CS

Current Time: Feb 12, 2016 at 3:46:25 AM

Latest Report: Feb 12, 2016 at 3:00 AM


Visibility: N/A

Pressure: 30.53 "Hg

Humidity: 67%

Dew point: -9 °F

Location of MordenLocation

Historic Weather in Morden — Graph

°F

Morden Temperature Yesterday

Maximum temperature yesterday: 11 °F (at 12:00 PM)
Minimum temperature yesterday: -1 °F (at 3:00 AM)
Average temperature yesterday: 7 °F

High & Low Weather Summary for the Past Weeks

 TemperatureHumidityPressure
High41 °F (Feb 6, 7:00 PM)100% (Feb 1, 5:00 AM)30.49 "Hg (Feb 1, 5:00 AM)
Low-4 °F (Feb 10, 10:00 PM)64% (Feb 12, 1:00 AM)29.28 "Hg (Jan 30, 1:00 AM)
Average18 °F82%30.00 "Hg
* Reported Jan 28 2:00 AM — Feb 12 2:00 AM, Morden, Weather by CustomWeather, © 2016

Note: Actual official high and low records may vary slightly from our data, if they occured in-between our weather recording intervals... More about our weather records

Advertising

Morden Weather History for the Previous 24 Hours

 ConditionsComfort  
Time TempWeatherWind HumidityBarometerVisibility
2:00 AM
Fri, Feb 12
0 °FFrigid.12 mph69%30.49 "HgN/A
1:00 AM3 °FFrigid.13 mph64%30.46 "HgN/A
12:00 AM6 °FFrigid.7 mph66%30.43 "HgN/A
11:00 PM
Thu, Feb 11
5 °FFrigid.8 mph74%30.42 "HgN/A
10:00 PM6 °FFrigid.8 mph74%30.40 "HgN/A
9:00 PM6 °FFrigid.7 mph76%30.39 "HgN/A
8:00 PM6 °FFrigid.6 mph82%30.39 "HgN/A
7:00 PM8 °FFrigid.5 mph79%30.37 "HgN/A
6:00 PM10 °FFrigid.5 mph77%30.35 "HgN/A
5:00 PM10 °FFrigid.6 mph78%30.35 "HgN/A
4:00 PM11 °FCold.8 mph74%30.33 "HgN/A
3:00 PM10 °FCold.7 mph73%30.32 "HgN/A
2:00 PM10 °FFrigid.8 mph78%30.32 "HgN/A
1:00 PM10 °FCold.7 mph77%30.31 "HgN/A
12:00 PM11 °FCold.8 mph78%30.32 "HgN/A
11:00 AM10 °FFrigid.6 mph75%30.31 "HgN/A
10:00 AM10 °FFrigid.3 mph77%30.32 "HgN/A
9:00 AM9 °FFrigid.6 mph80%30.31 "HgN/A
8:00 AM10 °FFrigid.2 mph75%30.31 "HgN/A
7:00 AM7 °FFrigid.2 mph80%30.32 "HgN/A
6:00 AM5 °FFrigid.3 mph84%30.32 "HgN/A
5:00 AM4 °FFrigid.2 mph82%30.32 "HgN/A
4:00 AM2 °FFrigid.3 mph83%30.35 "HgN/A
3:00 AM-1 °FFrigid.1 mph84%30.35 "HgN/A
Weather by CustomWeather, © 2016

See weather overviewHow to use our weather pages